Regional Weather Roundup
Issued by NWS Jackson, KY

Home | Current Version | Previous Version | Graphics & Text | Print | Product List | Glossary On
Versions: 1 2 3 4 5 6 7 8 9 10 11 12 13 14 15 16 17 18 19 20 21 22 23 24 25 26 27 28 29 30 31 32 33 34 35 36 37 38 39 40 41 42 43 44 45 46 47 48 49 50
000
ASUS43 KJKL 182111
RWRJKL

EAST KENTUCKY HOURLY WEATHER ROUNDUP
NATIONAL WEATHER SERVICE JACKSON KY
500 PM EDT FRI APR 18 2014

NOTE: "FAIR" INDICATES FEW OR NO CLOUDS BELOW 12,000 FEET WITH
NO SIGNIFICANT WEATHER AND/OR OBSTRUCTIONS TO VISIBILITY.

* THESE REPORTS ARE NOT UNDER NWS QUALITY CONTROL AND MAY NOT
  REPORT WEATHER SUCH AS PRECIPITATION AND FOG.

KYZ079-080-083-085-087-088-110-112-115-119-120-182200
...EASTERN KENTUCKY...

CITY           SKY/WX    TMP DP  RH WIND       PRES   REMARKS
JACKSON        PTSUNNY   70  36  28 VRB5      30.22F
LONDON         CLOUDY    70  39  32 NE6       30.22F
SOMERSET*      PTSUNNY   66  37  34 NE3       30.23F
MONTICELLO*    CLOUDY    68  45  43 VRB6      30.23F
MIDDLESBORO*   CLOUDY    66  40  38 CALM      30.22F
HARLAN APT*    CLOUDY    66  36  32 N6        30.22F
BLACK MTN*       N/A     55  37  50 NE2         N/A
PIKEVILLE APT* SUNNY     66  37  34 CALM      30.21F
BIG SANDY*     MOCLDY    69  38  31 W6        30.21F
MOREHEAD APT*  CLEAR     68  34  28 NW8       30.25F
$$

KYZ035-036-041-042-044-050-067-078-099-182200
...CENTRAL KENTUCKY...

CITY           SKY/WX    TMP DP  RH WIND       PRES   REMARKS
MT STERLING*   MOSUNNY   68  39  34 N7        30.25F
FLEMING/MASON* SUNNY     68  37  32 E3        30.24F
DANVILLE*      PTSUNNY   68  43  40 N6        30.24F
LEXINGTON      PTSUNNY   70  40  33 NW7       30.24F
FRANKFORT      CLOUDY    69  36  29 CALM      30.22F
$$

KYZ091>093-OHZ055-061-077-WVZ005-015-034-035-042-182200
...SOUTHERN OHIO/WEST VIRGINIA...

CITY           SKY/WX    TMP DP  RH WIND       PRES   REMARKS
COVINGTON      PTSUNNY   70  35  27 CALM      30.23F
COLUMBUS       CLOUDY    69  34  27 NW10      30.22F
DAYTON         PTSUNNY   68  39  34 W9G18     30.24F
WILMINGTON     PTSUNNY   67  35  30 W6        30.24F
HUNTINGTON     MOSUNNY   72  32  23 W9        30.20F
CHARLESTON     MOSUNNY   72  37  28 CALM      30.19F
PINEVILLE*     CLOUDY    69  37  31 MISG      30.27F
BECKLEY        CLOUDY    63  27  25 W6        30.23F
BLUEFIELD      CLOUDY    63  26  24 SE5       30.25F
$$

VAZ002-007-008-TNZ017-027-036-066-071-182200
...SOUTHWEST VIRGINIA/EAST TENNESSEE...

CITY           SKY/WX    TMP DP  RH WIND       PRES   REMARKS
WISE*          CLOUDY    61  34  36 CALM      30.25F
ABINGDON*      CLOUDY    62  33  33 CALM      30.25F
BRISTOL        CLOUDY    62  32  32 S5        30.24F
KNOXVILLE      CLOUDY    62  41  46 NE9       30.21F
OAK RIDGE      CLOUDY    65  39  38 NE5       30.23F
CROSSVILLE     CLOUDY    62  41  46 NE8       30.23F
NASHVILLE      CLOUDY    68  46  45 NE7       30.20F
$$

...KEY TO REMARKS...
VSB - VISIBILITY IN MILES
WCI - WIND CHILL INDEX
HX  - HEAT INDEX

$$



USA.gov is the U.S. government's official web portal to all federal, state and local government web resources and services.